Moses Lake, WA

2:59 AM PDT on April 30, 2017 (GMT -0700)
Grant County International

Weather History for KMWH - October, 2014

Change the Weather History Date:

Saturday, October 25, 2014

  Actual Average Record
Temperature  
Mean Temperature 52 °F 46 °F  
Max Temperature 59 °F 58 °F 68 °F (2015)
Min Temperature 45 °F 33 °F 19 °F (2002)
Degree Days  
Heating Degree Days 13 19  
Month to date heating degree days 200 362  
Since 1 July heating degree days 252 512  
Cooling Degree Days 0 0  
Month to date cooling degree days 4 0  
Year to date cooling degree days 952 614  
Growing Degree Days 2 (Base 50)    
Moisture  
Dew Point 46 °F    
Average Humidity 74    
Maximum Humidity 93    
Minimum Humidity 55    
Precipitation  
Precipitation 0.01 in 0.02 in 1.50 in (1979)
Month to date precipitation 0.81 0.50  
Year to date precipitation 4.99 6.32  
Sea Level Pressure  
Sea Level Pressure 29.62 in    
Wind  
Wind Speed 11 mph (North)    
Max Wind Speed 31 mph    
Max Gust Speed 40 mph    
Visibility 9 miles    
Events Rain    
T = Trace of Precipitation, MM = Missing Value Source: NWS Daily Summary

Daily Weather History Graph

Daily Weather History Graph

Search for Another Location

Airport or City:

Trip Planner

Search our weather history database for the weather conditions in past years. The results will help you decide how hot, cold, wet, or windy it might be!

Date:

Astronomy

Oct. 25, 2014 Rise Set
Actual Time 7:30 AM PDT 5:51 PM PDT
Civil Twilight 6:58 AM PDT 6:23 PM PDT
Nautical Twilight 6:23 AM PDT 6:58 PM PDT
Astronomical Twilight 5:47 AM PDT 7:34 PM PDT
Moon 9:19 AM PDT (10/25) 7:12 PM PDT (10/25)
Length of Visible Light 11h 24m
Length of Day
10h 21m
Waxing Crescent, 4% of the Moon is Illuminated
Oct 25
Waxing Crescent
Oct 30
First Quarter
Nov 6
Full
Nov 14
Last Quarter
Nov 22
New

Hourly Weather History & Observations

Time (PDT) Temp. Windchill Dew Point Humidity Pressure Visibility Wind Dir Wind Speed Gust Speed Precip Events Conditions
12:52 AM 48.9 °F - 46.0 °F 90% 29.88 in 9.0 mi North 12.7 mph - 0.00 in Rain Light Rain
1:52 AM 48.9 °F - 45.0 °F 86% 29.84 in 7.0 mi North 12.7 mph - 0.00 in Rain Light Rain
2:52 AM 50.0 °F - 44.6 °F 82% 29.81 in 10.0 mi North 11.5 mph - N/A Rain Light Rain
3:52 AM 48.9 °F - 45.0 °F 86% 29.79 in 6.0 mi North 11.5 mph - 0.00 in Rain Light Rain
4:52 AM 48.0 °F - 44.1 °F 86% 29.76 in 7.0 mi North 9.2 mph - 0.00 in Rain Light Rain
5:52 AM 46.9 °F - 44.1 °F 90% 29.73 in 4.0 mi North 11.5 mph - 0.00 in   Clear
6:52 AM 46.0 °F 41.9 °F 43.0 °F 89% 29.70 in 4.0 mi North 8.1 mph - N/A   Clear
7:42 AM 46.0 °F 41.0 °F 43.0 °F 89% 29.67 in 2.0 mi NNW 10.4 mph - N/A   Clear
7:49 AM 46.4 °F 41.1 °F 42.8 °F 87% 29.67 in 10.0 mi NNW 11.5 mph - N/A   Clear
7:52 AM 46.0 °F 41.4 °F 43.0 °F 89% 29.68 in 10.0 mi NNW 9.2 mph - N/A   Clear
8:52 AM 46.9 °F - 43.0 °F 86% 29.65 in 10.0 mi NNW 9.2 mph - N/A   Clear
9:52 AM 51.1 °F - 45.0 °F 80% 29.64 in 10.0 mi North 6.9 mph - N/A   Mostly Cloudy
10:52 AM 54.0 °F - 45.0 °F 72% 29.60 in 10.0 mi East 4.6 mph - N/A   Overcast
11:52 AM 54.0 °F - 46.0 °F 75% 29.60 in 10.0 mi Calm Calm - N/A   Overcast
12:22 PM 55.0 °F - 46.0 °F 72% 29.57 in 10.0 mi Variable 3.5 mph - N/A   Scattered Clouds
12:52 PM 55.0 °F - 46.9 °F 74% 29.57 in 10.0 mi SE 4.6 mph - N/A   Clear
1:52 PM 55.9 °F - 48.0 °F 75% 29.55 in 10.0 mi West 5.8 mph - N/A   Partly Cloudy
2:52 PM 57.9 °F - 48.9 °F 72% 29.51 in 10.0 mi Variable 4.6 mph - N/A   Scattered Clouds
3:52 PM 55.9 °F - 48.9 °F 77% 29.50 in 10.0 mi SE 6.9 mph - N/A   Mostly Cloudy
4:52 PM 55.9 °F - 50.0 °F 80% 29.52 in 10.0 mi Variable 3.5 mph - 0.01 in   Overcast
5:52 PM 54.0 °F - 48.9 °F 83% 29.47 in 10.0 mi SE 10.4 mph - N/A   Mostly Cloudy
6:52 PM 53.1 °F - 48.9 °F 86% 29.47 in 9.0 mi SSE 11.5 mph - N/A   Mostly Cloudy
7:52 PM 54.0 °F - 48.0 °F 80% 29.47 in 10.0 mi South 13.8 mph - N/A   Mostly Cloudy
8:52 PM 57.9 °F - 46.9 °F 67% 29.47 in 10.0 mi South 21.9 mph - N/A   Clear
9:52 PM 59.0 °F - 45.0 °F 60% 29.52 in 10.0 mi SSW 24.2 mph 35.7 mph N/A   Clear
10:52 PM 57.0 °F - 43.0 °F 59% 29.57 in 10.0 mi SSW 21.9 mph 31.1 mph N/A   Scattered Clouds
11:52 PM 55.9 °F - 39.9 °F 55% 29.66 in 10.0 mi SW 19.6 mph 27.6 mph N/A   Overcast